Dewpoint
62 62 62 62 62 62 63 63 62 62 62 62 62 62 63 63 63 62 62 61 62 62 62 61 61 61 61 60 61 60 58 51 47 46 43 43 50 53 54 58 59 62 62 42 31 27 21 22 23 23 23 29 34 28 38 35 34 36 28 22 22 22 21 23 17 14 16 19 23 24 24 22 21 24 23 23 23 22 26 24 34 36 39 48 48 56 60 60
62 62 62 62 62 62 63 63 62 62 62 62 62 62 62 62 62 61 62 61 62 61 62 61 61 62 61 60 61 59 54 50 45 44 44 46 52 52 56 60 61 64 56 38 29 25 22 21 23 22 22 22 38 26 33 34 34 29 23 21 20 20 22 18 17 15 11 15 22 23 23 21 20 23 22 21 21 22 23 24 27 30 36 46 49 59 59 60
61 61 61 61 62 62 62 62 62 62 62 62 62 62 62 62 61 61 61 61 61 61 61 61 61 61 61 62 61 57 46 44 41 40 42 56 56 55 56 59 59 62 39 32 31 26 24 23 22 20 21 21 25 24 31 29 29 27 29 23 22 23 18 20 17 15 18 18 21 23 23 22 20 21 22 20 19 20 19 18 23 24 31 40 51 59 59 59
61 61 61 61 62 62 62 62 62 62 62 62 62 61 61 61 61 61 61 61 61 61 61 61 61 61 61 62 60 52 47 45 45 45 40 60 59 59 58 59 62 61 40 34 29 27 22 25 25 21 19 23 24 27 24 28 27 27 22 20 21 20 18 16 19 16 17 19 20 21 23 23 21 20 21 19 16 18 16 14 19 20 25 36 50 57 59 59
61 61 61 61 61 62 62 62 62 62 62 61 61 61 60 60 61 61 61 60 60 61 61 61 61 61 61 61 58 47 45 45 44 42 43 59 60 58 59 61 64 56 44 27 25 26 24 23 22 20 20 17 22 23 21 25 26 26 16 20 20 20 18 18 19 19 19 19 19 22 22 21 21 21 21 17 13 10 10 11 15 16 17 35 47 57 59 59
61 61 61 61 61 62 61 62 62 62 61 61 61 61 60 60 60 60 60 60 60 61 61 60 60 61 61 60 57 47 43 40 32 42 59 60 58 57 58 60 64 51 38 29 28 25 24 21 19 18 18 17 17 18 15 20 23 19 20 19 20 19 18 19 19 21 19 18 19 21 20 20 19 18 20 16 12 17 21 22 23 24 27 40 47 57 58 58
60 60 60 61 61 61 61 61 61 61 61 61 61 60 60 60 60 60 60 60 59 60 60 59 60 60 61 60 52 45 38 39 28 58 61 64 63 60 59 63 60 43 36 32 28 23 22 18 17 16 15 16 17 17 19 19 22 20 16 19 19 19 20 21 21 21 19 18 17 18 19 17 17 13 18 17 16 21 23 25 25 32 44 44 50 55 57 58
60 60 59 60 60 60 61 61 61 61 61 61 60 60 60 60 60 60 59 60 59 60 60 59 59 60 60 55 42 35 36 35 45 56 64 66 64 60 61 53 44 41 36 32 27 23 20 15 15 15 14 13 14 15 19 19 20 16 17 19 20 20 20 20 20 20 19 19 19 19 17 15 16 16 19 17 17 20 32 35 38 38 41 43 48 51 54 56
59 59 59 59 59 59 60 60 60 60 61 60 60 60 60 60 59 59 59 59 59 59 59 60 60 60 59 51 31 29 30 35 45 59 62 59 58 56 52 46 39 37 34 30 26 22 21 15 14 16 14 14 15 14 19 17 16 17 17 20 19 19 19 19 20 20 19 19 18 17 16 18 19 21 17 16 16 22 28 36 36 41 41 40 43 48 51 54
59 59 59 59 59 59 60 60 60 60 60 60 61 60 60 59 59 59 59 58 58 58 59 60 60 60 57 41 33 32 41 47 56 59 58 54 50 49 46 42 35 32 30 29 26 22 19 16 15 19 20 14 16 12 19 17 16 16 19 19 18 19 19 21 19 19 19 19 18 16 17 17 19 18 10 15 20 21 23 23 36 35 35 41 44 46 49 51
59 59 59 58 58 59 60 60 59 59 60 60 60 60 59 59 59 59 58 58 58 58 58 59 59 58 52 41 31 34 43 46 52 56 53 52 49 47 41 37 34 31 30 30 26 22 21 25 34 19 21 10 15 16 18 16 17 19 19 18 18 19 19 19 19 19 19 18 18 18 17 18 19 19 11 18 21 23 21 21 36 33 31 37 43 47 49 50
59 59 59 59 59 59 60 59 59 59 59 60 59 59 59 59 59 58 58 57 57 58 58 58 59 53 43 37 30 35 39 44 48 52 51 48 45 44 40 35 32 34 31 27 27 30 34 31 24 17 9 14 8 17 17 18 18 18 17 15 17 17 17 18 18 19 22 18 19 18 17 16 19 16 16 18 24 24 21 20 28 32 29 36 40 45 49 50
59 59 59 59 59 59 59 59 59 59 59 59 59 59 58 58 58 58 57 57 57 58 58 59 59 52 40 29 30 40 43 42 45 47 44 42 39 38 38 37 32 31 31 29 27 30 34 24 20 15 16 15 14 10 19 20 18 17 16 13 15 15 15 18 19 19 19 21 20 19 11 10 15 16 17 18 20 22 22 20 23 29 29 34 40 45 48 49
58 59 59 58 58 59 59 59 59 59 59 59 59 58 58 58 58 57 57 56 57 57 57 59 57 50 38 28 32 40 41 41 42 40 38 37 36 40 35 35 35 32 39 31 35 33 27 22 21 16 19 17 15 22 16 17 17 14 14 14 13 13 12 18 18 18 17 20 19 18 14 4 12 13 19 20 18 18 16 17 20 25 29 34 41 43 45 48
58 58 58 58 58 58 58 59 59 58 58 58 58 58 58 57 57 57 57 56 57 57 58 58 54 43 33 28 38 44 55 39 36 37 38 35 35 34 34 34 33 35 33 32 33 30 24 23 21 15 12 21 19 18 13 13 14 11 10 11 13 11 17 18 19 17 15 18 19 14 15 8 8 15 18 21 19 18 16 15 17 21 28 32 36 39 40 43
58 58 58 58 58 58 58 58 58 57 57 57 57 57 57 57 56 56 56 55 57 57 57 53 50 41 27 29 31 51 41 33 35 38 38 38 36 31 34 33 31 29 27 25 27 24 21 20 15 12 16 18 15 11 11 14 12 12 10 16 12 15 16 16 16 20 21 17 18 13 8 6 8 13 16 21 20 18 16 15 17 18 21 25 29 33 34 37
58 58 58 58 58 58 58 58 57 57 57 56 57 57 57 57 57 57 56 57 56 55 52 39 44 44 39 32 41 37 30 31 38 40 38 38 36 33 32 31 29 27 26 24 27 27 22 17 23 22 17 12 13 11 12 14 12 12 13 10 16 13 11 10 19 20 27 19 14 15 12 10 14 18 18 20 21 18 16 14 14 16 17 19 23 24 27 30
58 58 57 57 58 58 57 57 57 57 57 57 56 56 55 56 56 57 57 55 54 52 43 39 43 34 35 29 30 30 29 37 39 37 38 36 35 31 29 28 27 24 23 21 24 21 23 17 19 13 15 12 10 11 13 10 13 11 10 13 17 13 8 7 12 17 17 18 17 13 12 10 8 17 18 18 19 18 16 15 15 15 16 18 20 21 22 24
58 57 57 57 57 57 57 57 57 57 57 56 56 57 57 57 55 52 50 50 46 36 32 36 33 34 37 31 30 33 33 38 39 36 33 33 32 31 30 27 27 22 22 18 18 18 20 24 24 16 13 11 10 10 9 10 7 10 10 10 11 10 8 8 16 21 18 15 14 12 12 11 10 9 13 17 18 17 15 15 17 17 17 18 19 23 23 25
57 57 57 57 57 57 57 57 56 57 56 55 55 53 52 49 47 45 47 48 34 29 29 31 32 29 18 24 30 37 38 35 32 36 34 33 31 28 26 26 33 22 19 19 21 17 29 23 18 16 14 10 11 10 8 10 10 10 12 11 4 6 7 15 19 21 20 18 13 11 12 11 9 8 8 10 18 19 18 16 18 20 20 19 19 19 23 25
57 57 57 57 57 57 57 57 57 57 56 55 52 48 43 42 40 38 43 44 38 29 28 27 30 24 24 27 36 33 30 29 27 34 33 36 30 26 24 24 23 21 19 17 21 23 21 20 17 14 13 8 8 9 12 11 10 11 13 14 11 18 5 13 17 21 21 15 10 12 13 15 14 13 13 13 14 16 16 17 17 15 16 20 22 22 25 24
56 56 56 56 57 57 57 57 57 56 55 53 50 44 43 43 40 42 41 34 31 33 28 27 27 31 33 33 34 34 28 26 29 33 37 32 28 22 23 21 19 16 25 23 21 22 21 17 14 14 16 15 14 14 12 11 10 11 7 13 11 8 18 16 20 21 19 14 9 17 14 13 12 10 10 9 9 12 13 14 13 12 15 16 20 24 23 28
56 56 56 56 56 57 57 57 56 55 52 50 47 43 41 43 44 40 34 31 26 32 26 25 24 26 30 32 32 36 23 22 23 33 33 35 27 24 23 20 16 16 20 18 18 22 19 18 16 17 17 15 14 13 11 13 12 12 12 11 9 16 10 9 18 21 20 15 17 19 17 15 13 12 12 14 12 14 18 19 20 20 17 18 19 23 27 30
56 56 56 56 56 57 57 56 56 53 51 49 47 45 47 47 51 34 32 30 24 25 27 24 23 25 27 28 32 30 23 20 24 29 33 31 24 24 19 18 14 19 16 16 14 16 15 19 20 17 17 14 12 12 11 10 8 22 24 16 9 19 12 19 18 20 19 18 20 17 16 8 7 6 7 10 15 18 22 24 25 29 34 33 40 40 40 29
55 55 55 56 56 56 56 56 53 51 50 49 47 46 45 50 50 49 30 25 26 25 33 31 43 30 32 37 36 27 24 27 26 29 35 31 24 22 18 18 15 16 15 16 12 15 15 21 24 17 19 14 15 13 16 19 6 16 26 21 15 14 15 19 21 15 16 16 19 16 8 5 6 5 4 6 16 16 17 19 19 21 26 30 28 30 33 39
55 55 55 55 56 56 55 51 51 51 48 47 47 47 47 51 48 48 29 24 24 26 29 22 32 24 36 29 34 26 24 21 30 34 32 33 27 21 21 19 19 15 14 16 11 23 17 20 25 20 22 27 21 13 19 16 9 13 13 22 14 9 16 22 22 20 12 10 20 18 9 5 13 10 11 10 13 11 13 20 17 16 18 25 28 28 27 31
55 55 55 56 56 55 51 47 51 49 47 46 47 50 51 51 50 45 27 20 18 27 19 30 29 30 42 29 28 22 15 20 33 34 34 35 24 25 18 17 18 19 17 16 18 14 21 19 24 27 22 27 23 15 24 18 13 11 30 29 19 20 25 24 23 22 21 22 21 17 19 10 9 6 14 13 10 6 8 12 17 15 16 21 23 24 28 29
55 55 55 56 56 54 48 49 49 47 44 46 48 50 50 49 49 41 24 14 15 28 21 23 23 37 36 30 28 18 24 29 26 29 31 30 26 22 21 16 14 17 18 18 14 29 20 23 25 26 28 23 18 20 30 24 15 20 29 31 23 18 23 26 23 24 25 21 13 16 28 8 7 9 11 11 7 5 5 4 10 14 19 18 24 23 29 31
55 55 55 55 55 53 51 49 48 46 47 48 48 51 50 50 46 23 17 11 28 19 34 19 36 30 31 31 26 24 26 22 16 28 30 26 26 23 16 18 15 19 22 21 9 28 28 28 24 25 25 19 26 26 31 31 16 29 31 30 29 32 30 25 21 23 20 13 10 18 20 13 5 12 9 13 11 6 2 1 1 16 19 25 25 29 29 29
55 55 55 55 54 51 49 50 47 48 50 50 51 50 50 44 25 19 14 13 27 19 20 26 25 25 28 25 22 25 24 25 29 29 26 24 23 23 23 25 18 18 23 25 31 30 30 30 33 27 23 30 26 28 34 32 31 30 31 27 25 26 26 23 22 18 16 12 11 24 22 17 11 14 9 17 15 3 -1 1 12 21 25 26 29 30 33 28
55 55 55 54 49 48 48 46 46 50 50 51 49 48 42 31 17 14 16 20 24 27 24 23 20 25 24 21 19 23 24 28 28 26 24 23 21 21 21 21 23 28 30 29 32 32 28 25 31 33 30 28 26 29 32 33 33 34 28 22 22 21 19 19 18 21 13 9 17 16 21 20 8 7 18 9 6 3 5 5 6 16 21 25 28 26 26 27
55 55 55 51 50 50 44 44 48 52 50 50 48 44 28 17 20 16 17 19 19 22 23 20 23 24 23 21 23 21 24 26 26 23 22 21 23 18 18 18 22 21 19 19 21 30 28 28 30 32 32 27 35 22 24 29 30 30 20 18 15 15 15 12 13 12 10 9 16 14 24 16 13 5 4 6 5 4 7 9 10 15 20 24 28 31 30 34
55 54 53 50 51 48 49 51 51 50 49 49 45 37 21 20 16 18 17 18 17 25 22 24 24 21 22 21 22 24 29 24 26 22 24 24 21 23 22 16 21 20 13 20 27 24 26 34 31 34 30 27 31 17 20 18 23 21 16 17 12 11 12 13 13 12 11 18 15 13 21 11 9 7 11 9 7 5 9 13 22 22 20 22 25 32 31 37
55 54 50 51 50 51 52 51 51 50 48 47 38 27 21 19 17 27 21 19 26 26 22 24 22 21 21 19 24 26 25 28 24 22 23 23 22 22 24 24 19 25 24 21 18 20 18 20 23 28 24 28 29 28 22 19 20 17 26 19 15 13 16 12 11 11 13 15 15 19 15 14 10 2 14 12 16 16 15 15 24 27 27 28 30 33 32 33
54 52 51 50 51 51 50 50 50 49 47 44 29 20 20 19 19 17 18 24 24 21 22 26 22 22 20 22 28 25 23 28 28 24 23 23 20 21 21 18 25 21 28 19 27 20 21 20 30 34 35 32 29 33 31 29 24 28 32 28 20 17 19 9 19 17 17 13 15 18 11 10 9 17 19 16 17 16 17 19 23 23 26 31 31 32 34 31
52 51 50 48 48 50 51 50 49 48 44 35 21 19 19 21 20 24 21 23 21 25 24 22 26 21 19 25 27 23 32 29 28 26 25 24 23 21 24 22 22 24 21 15 23 14 20 15 33 36 32 29 31 33 29 33 20 23 23 22 19 26 18 15 22 17 16 11 8 20 14 16 11 7 4 18 12 11 16 16 17 20 26 29 32 34 33 34
50 50 48 48 49 50 51 50 49 47 43 29 21 19 22 27 34 26 26 22 22 24 23 19 23 18 23 24 26 26 28 31 30 26 23 26 20 23 24 22 24 23 19 18 22 32 17 25 31 33 31 31 33 29 34 31 30 24 17 20 31 30 25 15 5 14 9 4 10 18 11 3 6 7 17 11 10 6 13 13 14 22 27 25 31 37 37 35
50 48 48 48 50 50 50 49 48 46 42 32 21 26 29 26 28 24 23 24 23 23 22 23 24 25 21 21 22 24 29 26 27 29 23 22 20 24 23 23 23 23 22 27 17 23 27 18 29 32 33 33 37 36 26 31 29 25 21 35 15 13 12 9 11 11 9 9 7 6 4 6 9 6 -1 -2 6 6 7 15 14 16 21 26 32 33 32 33
49 48 44 48 50 49 50 48 46 42 36 30 22 24 30 38 32 27 22 23 26 25 22 23 24 26 21 19 22 24 26 19 27 26 24 25 18 24 22 24 28 21 21 22 18 29 33 24 25 33 32 32 30 29 20 23 33 30 29 21 31 20 13 13 11 19 8 8 12 12 8 4 20 6 1 -2 -3 11 4 17 12 15 20 25 31 32 33 38
47 45 43 50 50 49 49 47 43 39 33 26 25 26 35 30 31 27 22 23 26 23 23 25 27 24 24 23 23 23 27 21 25 24 24 26 20 23 20 23 26 26 21 26 26 30 21 27 21 29 32 31 23 26 24 23 20 18 20 14 24 30 25 16 23 17 12 8 5 6 8 12 19 7 3 -2 2 10 14 15 24 23 25 28 31 36 39 40
48 44 44 51 49 49 47 43 38 35 32 28 34 31 34 32 34 34 36 42 33 32 22 26 24 23 26 22 22 26 26 23 25 23 24 25 18 17 24 22 27 27 25 28 27 28 24 16 22 25 24 23 25 32 32 32 30 20 18 16 16 18 16 14 13 19 15 9 8 5 9 14 19 12 8 5 12 15 19 23 25 28 25 27 32 36 39 40
45 40 42 50 49 48 42 37 35 36 32 27 25 31 33 37 32 34 35 36 39 28 32 29 27 27 29 26 25 28 26 24 27 25 26 26 23 19 26 23 23 25 21 20 19 35 29 31 28 25 26 25 31 33 34 33 33 30 23 19 22 19 15 14 10 18 16 12 11 16 7 7 21 20 17 13 12 12 19 22 24 25 28 27 33 36 41 40
45 42 49 50 48 46 38 34 37 36 33 35 35 37 39 36 32 35 33 36 32 37 30 30 32 31 30 27 28 29 26 27 28 25 27 27 25 21 32 25 26 26 24 25 29 26 34 29 26 26 28 29 30 32 35 35 35 27 29 31 27 19 19 15 13 20 13 14 9 9 10 10 26 29 21 19 21 23 22 19 22 24 26 30 34 37 38 36
44 43 44 49 50 48 35 31 32 33 33 35 37 36 39 37 35 34 33 36 31 33 28 32 31 31 29 35 29 28 27 24 31 27 26 29 27 36 36 33 26 26 23 22 18 32 21 26 26 24 24 24 24 29 30 34 30 25 21 26 27 31 30 24 22 21 14 20 16 8 8 9 29 29 28 23 23 18 17 23 22 26 30 34 32 36 38 38
45 46 45 47 50 48 37 33 32 33 33 31 34 34 33 34 41 36 35 35 40 31 32 28 31 33 32 33 30 31 29 25 28 32 36 32 30 32 36 37 30 24 38 39 36 31 25 28 25 20 19 18 18 19 20 24 25 25 29 31 30 27 25 18 16 16 13 22 22 14 9 10 15 19 17 19 18 17 20 22 26 27 30 29 35 38 36 37
41 34 41 42 46 45 44 41 36 34 31 31 30 33 33 32 36 37 41 40 41 40 39 35 36 31 33 32 31 31 28 35 27 29 30 29 29 34 38 39 34 31 33 36 34 27 26 32 24 20 21 18 20 23 26 30 27 23 28 28 28 29 26 26 24 16 14 22 18 18 18 15 9 11 14 17 23 13 12 21 20 22 27 35 34 37 37 38
44 37 37 35 42 43 40 39 36 34 31 30 26 33 32 31 35 34 40 32 37 37 37 34 32 29 31 29 29 29 29 32 31 31 29 31 35 34 34 36 35 36 35 34 33 30 29 24 28 29 28 23 23 26 30 30 30 27 28 30 32 27 28 25 20 18 20 21 16 21 23 21 17 11 11 15 15 17 17 17 18 21 27 33 35 34 34 32
36 39 43 42 37 35 37 37 36 34 34 29 30 34 32 33 31 29 36 38 40 41 30 32 35 29 30 29 31 28 30 31 31 30 34 34 32 32 29 30 31 37 32 32 35 26 23 20 30 28 28 27 30 30 33 31 29 28 28 30 31 28 27 25 24 23 26 20 15 19 24 23 17 14 12 14 16 16 16 18 19 21 26 30 31 33 31 31
42 41 42 43 38 40 37 37 37 35 33 29 31 30 32 32 30 32 32 36 38 35 39 26 30 31 30 32 30 29 32 25 26 33 30 31 30 29 28 28 29 33 30 31 31 35 22 21 26 28 26 27 31 28 31 28 29 30 29 28 29 29 27 26 25 26 25 24 22 20 21 28 23 17 14 18 26 23 22 28 25 25 25 29 30 30 30 31
37 39 36 42 42 38 37 36 35 33 32 30 30 30 31 30 29 35 37 36 34 33 39 34 30 32 32 33 31 30 31 28 28 30 33 32 31 31 28 25 26 30 32 28 32 28 27 20 27 31 23 24 30 34 32 32 31 28 29 30 29 29 28 28 27 26 27 25 23 22 24 26 25 22 18 33 30 29 25 19 19 23 25 29 29 29 30 30
39 40 42 40 38 39 37 36 33 31 31 29 29 32 34 32 32 35 37 40 33 33 37 34 33 35 34 33 33 33 34 33 35 31 34 31 27 32 26 30 28 28 31 28 27 28 27 24 30 25 20 21 31 30 29 28 27 26 30 33 30 29 28 28 26 27 25 24 26 26 24 24 22 24 21 29 26 24 22 22 21 22 25 28 28 28 28 29
42 43 42 43 35 40 37 35 33 31 29 31 31 33 33 32 34 36 33 38 38 41 37 36 38 34 36 36 36 37 40 41 40 40 34 37 41 38 41 35 30 29 27 26 30 27 23 25 23 21 19 20 26 29 27 27 23 23 24 29 32 30 28 28 28 28 27 26 25 23 23 23 23 25 21 27 23 23 22 22 26 26 28 27 27 28 30 31